Weather in Grodekovo

Russia / Amur Oblast     50°07′16″N   127°34′34″E
temp.,
°C
wind,
m/s
gust,
m/s
humid.,
%
clouds,
%
prec.,
mm/h
press.,
hPa
HPBL,
m
15 may, sat
sat1500:00+10nnw3787100 2.0 1000351
03:00+7wnw359074 2.0 1000104
06:00+7w49850 0.0 1000267
09:00+13wnw710580 0.0 9991181
12:00+13wnw8105710 0.2 10001417
15:00+15wnw10144482 0.2 10002488
18:00+15wnw8144710 0.0 10002087
21:00+12wnw6125355 0.0 1003326
16 may, sun
sun1600:00+11wnw512503 0.0 1003282
03:00+10w511560 0.0 1003249
06:00+9w411600 0.0 1003265
09:00+16wnw57350 0.0 10021135
12:00+21w49243 0.0 10003257
15:00+22wnw591960 0.0 9983666
18:00+19wsw473743 0.0 998288
21:00+14w35452 0.0 99957
17 may, mon
mon1700:00+12wsw36482 0.0 99989
03:00+11wsw411445 0.0 999175
06:00+12w512495 0.0 999273
09:00+18wnw574036 0.0 10001084
12:00+22wnw5727100 0.0 9992534
15:00+23wnw5726100 0.0 9982962
18:00+21n2337100 0.0 99788
21:00+14nne8124663 0.3 1000478
18 may, tue
tue1800:00+12nnw355387 0.0 999128
03:00+10ne2375100 1.1 999149
06:00+10sse1276100 0.1 999124
09:00+15sw235698 0.1 998510
12:00+19wnw5639100 0.0 9971531
15:00+21wsw61033100 0.0 9962852
18:00+20nw5831100 0.0 996873
21:00+13n814360 0.0 1001675
19 may, wed
wed1900:00+9nnw22460 0.0 100420
03:00+7w11520 0.0 100510
06:00+8ssw22550 0.0 100787
09:00+14s453787 0.0 1006800
12:00+20sw472166 0.0 10043097
15:00+22sw5823100 0.0 10023072
18:00+21ssw5829100 0.0 1000839
21:00+16s5144198 0.0 999323